| time (UTC) | temp F | wind direction | speed knots | gust knots | rain 1hr in | rain 24hr in | rain mn in | humidity % | barometer mb |
| 20260506201952 | 58 | 155 | 6.1 | 7.0 | 0.00 | 0.09 | 0.09 | 99 | 1011.1 |
| 20260506201450 | 58 | 168 | 2.6 | 5.2 | 0.00 | 0.09 | 0.09 | 99 | 1011.2 |
| 20260506200946 | 58 | 127 | 3.5 | 7.8 | 0.00 | 0.09 | 0.09 | 99 | 1011.0 |
| 20260506200443 | 58 | 135 | 3.5 | 7.0 | 0.05 | 0.09 | 0.09 | 99 | 1011.2 |
| 20260506195939 | 58 | 161 | 4.3 | 6.1 | 0.00 | 0.08 | 0.08 | 99 | 1011.0 |
| 20260506195436 | 58 | 156 | 3.5 | 11.3 | 0.00 | 0.08 | 0.08 | 99 | 1011.3 |
| 20260506194933 | 58 | 120 | 4.3 | 7.8 | 0.00 | 0.08 | 0.08 | 99 | 1011.3 |
| 20260506194430 | 58 | 150 | 5.2 | 6.1 | 0.00 | 0.08 | 0.08 | 99 | 1011.6 |
| 20260506193927 | 58 | 121 | 4.3 | 8.7 | 0.00 | 0.08 | 0.08 | 99 | 1011.7 |
| 20260506193424 | 58 | 158 | 4.3 | 7.0 | 0.00 | 0.08 | 0.08 | 99 | 1011.4 |
| 20260506192920 | 58 | 155 | 3.5 | 8.7 | 0.00 | 0.08 | 0.08 | 99 | 1011.5 |
| 20260506192417 | 59 | 141 | 4.3 | 5.2 | 0.07 | 0.08 | 0.08 | 99 | 1011.6 |
| 20260506191914 | 59 | 131 | 4.3 | 7.0 | 0.00 | 0.07 | 0.07 | 99 | 1011.4 |
| 20260506191410 | 59 | 133 | 3.5 | 5.2 | 0.05 | 0.07 | 0.07 | 99 | 1011.6 |
| 20260506190908 | 59 | 161 | 3.5 | 5.2 | 0.07 | 0.06 | 0.06 | 99 | 1011.6 |
| 20260506190404 | 59 | 140 | 2.6 | 7.0 | 0.07 | 0.06 | 0.06 | 99 | 1011.7 |
| 20260506185901 | 59 | 135 | 2.6 | 4.3 | 0.05 | 0.05 | 0.05 | 99 | 1011.7 |
| 20260506185358 | 59 | 153 | 3.5 | 4.3 | 0.05 | 0.05 | 0.05 | 99 | 1011.5 |
| 20260506184855 | 59 | 131 | 3.5 | 6.1 | 0.07 | 0.04 | 0.04 | 98 | 1011.7 |
| 20260506184352 | 59 | 116 | 5.2 | 7.8 | 0.07 | 0.04 | 0.04 | 97 | 1011.7 |
| 20260506183849 | 60 | 147 | 4.3 | 7.0 | 0.07 | 0.03 | 0.03 | 96 | 1011.6 |
| 20260506183344 | 60 | 134 | 2.6 | 6.1 | 0.05 | 0.02 | 0.02 | 96 | 1011.9 |
| 20260506182842 | 60 | 148 | 2.6 | 7.8 | 0.05 | 0.02 | 0.02 | 94 | 1011.9 |
| 20260506182339 | 61 | 154 | 4.3 | 6.1 | 0.07 | 0.01 | 0.01 | 93 | 1012.0 |
| 20260506181836 | 62 | 187 | 5.2 | 6.1 | 0.07 | 0.01 | 0.01 | 91 | 1012.0 |
| 20260506181335 | 62 | 168 | 5.2 | 7.8 | 0.00 | 0.00 | 0.00 | 89 | 1012.2 |
| 20260506180831 | 63 | 140 | 3.5 | 6.1 | 0.00 | 0.00 | 0.00 | 88 | 1012.3 |
| 20260506180327 | 63 | 121 | 4.3 | 7.0 | 0.00 | 0.00 | 0.00 | 86 | 1012.4 |
| 20260506175823 | 64 | 136 | 4.3 | 9.6 | 0.00 | 0.00 | 0.00 | 84 | 1012.4 |
| 20260506175321 | 64 | 164 | 5.2 | 9.6 | 0.00 | 0.00 | 0.00 | 82 | 1012.6 |
| 20260506174818 | 64 | 147 | 6.1 | 11.3 | 0.00 | 0.00 | 0.00 | 81 | 1012.3 |
| 20260506174315 | 65 | 128 | 4.3 | 11.3 | 0.00 | 0.00 | 0.00 | 80 | 1012.5 |
| 20260506173812 | 66 | 139 | 6.1 | 9.6 | 0.00 | 0.00 | 0.00 | 78 | 1012.5 |
| 20260506173309 | 67 | 173 | 11.3 | 13.9 | 0.00 | 0.00 | 0.00 | 76 | 1012.8 |
| 20260506172806 | 68 | 119 | 5.2 | 6.1 | 0.00 | 0.00 | 0.00 | 73 | 1012.5 |
| 20260506172306 | 68 | 179 | 7.0 | 12.2 | 0.00 | 0.00 | 0.00 | 72 | 1012.5 |
| 20260506171800 | 69 | 126 | 5.2 | 7.8 | 0.00 | 0.00 | 0.00 | 70 | 1012.5 |
| 20260506171257 | 69 | 119 | 6.1 | 12.2 | 0.00 | 0.00 | 0.00 | 69 | 1012.4 |
| 20260506170755 | 69 | 131 | 4.3 | 9.6 | 0.00 | 0.00 | 0.00 | 69 | 1012.4 |
| 20260506170251 | 69 | 124 | 7.8 | 11.3 | 0.00 | 0.00 | 0.00 | 69 | 1012.3 |
| 20260506165750 | 69 | 127 | 6.1 | 13.0 | 0.00 | 0.00 | 0.00 | 69 | 1012.2 |
| 20260506165247 | 70 | 155 | 9.6 | 13.0 | 0.00 | 0.00 | 0.00 | 67 | 1012.2 |
| 20260506164744 | 70 | 119 | 9.6 | 13.0 | 0.00 | 0.00 | 0.00 | 66 | 1012.3 |
| 20260506164240 | 70 | 134 | 7.8 | 12.2 | 0.00 | 0.00 | 0.00 | 65 | 1012.3 |
| 20260506163737 | 71 | 189 | 9.6 | 13.0 | 0.00 | 0.00 | 0.00 | 65 | 1012.3 |
| 20260506163232 | 71 | 174 | 7.8 | 13.9 | 0.00 | 0.00 | 0.00 | 66 | 1012.3 |
| 20260506162728 | 70 | 158 | 12.2 | 19.1 | 0.00 | 0.00 | 0.00 | 65 | 1012.5 |
| 20260506162226 | 69 | 113 | 3.5 | 11.3 | 0.00 | 0.00 | 0.00 | 68 | 1012.5 |
| 20260506161723 | 69 | 176 | 8.7 | 13.9 | 0.00 | 0.00 | 0.00 | 68 | 1013.0 |
| 20260506161220 | 70 | 157 | 4.3 | 7.0 | 0.00 | 0.00 | 0.00 | 68 | 1012.8 |
| 20260506160718 | 70 | 153 | 5.2 | 7.8 | 0.00 | 0.00 | 0.00 | 68 | 1013.0 |
| 20260506160214 | 70 | 123 | 4.3 | 9.6 | 0.00 | 0.00 | 0.00 | 68 | 1012.9 |
| 20260506155713 | 70 | 179 | 9.6 | 11.3 | 0.00 | 0.00 | 0.00 | 67 | 1013.1 |
| 20260506155210 | 70 | 184 | 8.7 | 17.4 | 0.00 | 0.00 | 0.00 | 67 | 1013.1 |
| 20260506153312 | 70 | 128 | 10.4 | 15.6 | 0.00 | 0.00 | 0.00 | 67 | 1013.1 |
| 20260506152808 | 70 | 114 | 9.6 | 14.8 | 0.00 | 0.00 | 0.00 | 67 | 1013.1 |
| 20260506152306 | 70 | 103 | 6.1 | 11.3 | 0.00 | 0.00 | 0.00 | 68 | 1013.5 |
| 20260506151805 | 69 | 139 | 14.8 | 19.1 | 0.00 | 0.00 | 0.00 | 67 | 1013.3 |
| 20260506151301 | 70 | 148 | 5.2 | 11.3 | 0.00 | 0.00 | 0.00 | 68 | 1013.4 |
| 20260506150758 | 69 | 157 | 4.3 | 8.7 | 0.00 | 0.00 | 0.00 | 69 | 1013.7 |
| 20260506150303 | 69 | 173 | 3.5 | 15.6 | 0.00 | 0.00 | 0.00 | 69 | 1013.6 |
| 20260506145751 | 69 | 185 | 9.6 | 18.2 | 0.00 | 0.00 | 0.00 | 69 | 1013.7 |
| 20260506145248 | 69 | 133 | 8.7 | 13.0 | 0.00 | 0.00 | 0.00 | 70 | 1013.6 |
| 20260506144746 | 68 | 153 | 3.5 | 7.0 | 0.00 | 0.00 | 0.00 | 72 | 1013.7 |
| 20260506144242 | 68 | 167 | 8.7 | 9.6 | 0.00 | 0.00 | 0.00 | 73 | 1013.5 |
| 20260506143740 | 67 | 126 | 6.1 | 11.3 | 0.00 | 0.00 | 0.00 | 73 | 1013.6 |
| 20260506143237 | 67 | 153 | 6.1 | 7.8 | 0.00 | 0.00 | 0.00 | 74 | 1013.6 |
| 20260506142736 | 68 | 125 | 4.3 | 11.3 | 0.00 | 0.00 | 0.00 | 73 | 1013.8 |
| 20260506142233 | 67 | 84 | 10.4 | 13.9 | 0.00 | 0.00 | 0.00 | 74 | 1013.8 |
| 20260506141731 | 67 | 145 | 7.0 | 12.2 | 0.00 | 0.00 | 0.00 | 74 | 1013.9 |
| 20260506141229 | 67 | 172 | 7.0 | 13.0 | 0.00 | 0.00 | 0.00 | 75 | 1013.6 |
| 20260506140727 | 67 | 133 | 6.1 | 14.8 | 0.00 | 0.00 | 0.00 | 75 | 1013.8 |
| 20260506140223 | 67 | 182 | 2.6 | 12.2 | 0.00 | 0.00 | 0.00 | 76 | 1013.6 |
| 20260506135720 | 67 | 143 | 7.0 | 13.0 | 0.00 | 0.00 | 0.00 | 77 | 1013.7 |
| 20260506135216 | 66 | 117 | 7.0 | 14.8 | 0.00 | 0.00 | 0.00 | 78 | 1013.5 |
| 20260506134714 | 66 | 141 | 8.7 | 15.6 | 0.00 | 0.00 | 0.00 | 78 | 1013.8 |
| 20260506134209 | 66 | 149 | 4.3 | 9.6 | 0.00 | 0.00 | 0.00 | 79 | 1013.7 |
| 20260506133707 | 65 | 157 | 5.2 | 19.1 | 0.00 | 0.00 | 0.00 | 79 | 1013.8 |
| 20260506133203 | 65 | 96 | 6.1 | 13.9 | 0.00 | 0.00 | 0.00 | 80 | 1013.8 |
| 20260506132701 | 65 | 177 | 7.8 | 11.3 | 0.00 | 0.00 | 0.00 | 80 | 1013.8 |
| 20260506132157 | 64 | 161 | 4.3 | 9.6 | 0.00 | 0.00 | 0.00 | 82 | 1013.8 |
| 20260506131655 | 64 | 150 | 13.0 | 20.9 | 0.00 | 0.00 | 0.00 | 82 | 1014.1 |
| 20260506131151 | 63 | 142 | 10.4 | 18.2 | 0.00 | 0.00 | 0.00 | 83 | 1014.1 |
| 20260506130648 | 63 | 163 | 6.1 | 11.3 | 0.00 | 0.00 | 0.00 | 83 | 1014.6 |
| 20260506130145 | 63 | 143 | 6.1 | 9.6 | 0.00 | 0.00 | 0.00 | 84 | 1014.5 |
| 20260506125643 | 62 | 147 | 7.0 | 9.6 | 0.00 | 0.00 | 0.00 | 85 | 1014.3 |
| 20260506125141 | 62 | 166 | 5.2 | 7.0 | 0.00 | 0.00 | 0.00 | 86 | 1014.2 |
| 20260506124639 | 61 | 125 | 3.5 | 7.0 | 0.00 | 0.00 | 0.00 | 87 | 1014.3 |
| 20260506124136 | 62 | 122 | 4.3 | 11.3 | 0.00 | 0.00 | 0.00 | 87 | 1014.4 |
| 20260506123633 | 62 | 123 | 2.6 | 7.0 | 0.00 | 0.00 | 0.00 | 86 | 1014.1 |
| 20260506123132 | 62 | 132 | 2.6 | 8.7 | 0.00 | 0.00 | 0.00 | 86 | 1014.2 |
| 20260506122628 | 61 | 125 | 3.5 | 8.7 | 0.00 | 0.00 | 0.00 | 88 | 1014.3 |
| 20260506122126 | 61 | 141 | 5.2 | 8.7 | 0.00 | 0.00 | 0.00 | 87 | 1014.5 |
| 20260506121624 | 60 | 124 | 4.3 | 7.8 | 0.00 | 0.00 | 0.00 | 89 | 1014.3 |
| 20260506121120 | 60 | 166 | 9.6 | 11.3 | 0.00 | 0.00 | 0.00 | 89 | 1014.7 |
| 20260506120618 | 60 | 137 | 6.1 | 13.0 | 0.00 | 0.00 | 0.00 | 90 | 1014.5 |
| 20260506120115 | 60 | 138 | 3.5 | 8.7 | 0.00 | 0.00 | 0.00 | 90 | 1014.3 |
| 20260506115614 | 60 | 155 | 2.6 | 4.3 | 0.00 | 0.00 | 0.00 | 90 | 1014.6 |
| 20260506115112 | 59 | 112 | 0.9 | 5.2 | 0.00 | 0.00 | 0.00 | 91 | 1014.4 |
| 20260506114608 | 59 | 112 | 2.6 | 4.3 | 0.00 | 0.00 | 0.00 | 91 | 1014.3 |
| 20260506114107 | 59 | 106 | 0.0 | 6.1 | 0.00 | 0.00 | 0.00 | 92 | 1014.7 |
| 20260506113604 | 58 | 218 | 3.5 | 4.3 | 0.00 | 0.00 | 0.00 | 92 | 1014.6 |
| 20260506113101 | 58 | 134 | 0.9 | 4.3 | 0.00 | 0.00 | 0.00 | 93 | 1014.7 |
| 20260506112557 | 57 | 165 | 2.6 | 4.3 | 0.00 | 0.00 | 0.00 | 94 | 1014.7 |
| 20260506112055 | 57 | 139 | 1.7 | 4.3 | 0.00 | 0.00 | 0.00 | 94 | 1014.8 |
| 20260506111553 | 57 | 132 | 1.7 | 4.3 | 0.00 | 0.00 | 0.00 | 93 | 1014.8 |
| 20260506111050 | 58 | 123 | 2.6 | 4.3 | 0.00 | 0.00 | 0.00 | 93 | 1015.0 |
| 20260506110548 | 58 | 132 | 3.5 | 6.1 | 0.00 | 0.00 | 0.00 | 93 | 1015.1 |
| 20260506110045 | 57 | 141 | 3.5 | 6.1 | 0.00 | 0.00 | 0.00 | 94 | 1014.9 |
| 20260506105541 | 57 | 135 | 1.7 | 5.2 | 0.00 | 0.00 | 0.00 | 94 | 1014.8 |
| 20260506105038 | 57 | 148 | 2.6 | 6.1 | 0.00 | 0.00 | 0.00 | 94 | 1014.8 |
| 20260506104536 | 57 | 151 | 2.6 | 5.2 | 0.00 | 0.00 | 0.00 | 94 | 1014.8 |
| 20260506104034 | 57 | 128 | 4.3 | 6.1 | 0.00 | 0.00 | 0.00 | 94 | 1014.8 |
| 20260506103531 | 57 | 145 | 1.7 | 5.2 | 0.00 | 0.00 | 0.00 | 95 | 1014.6 |
| 20260506103027 | 56 | 132 | 2.6 | 4.3 | 0.00 | 0.00 | 0.00 | 95 | 1014.4 |
| 20260506102526 | 56 | 130 | 3.5 | 7.0 | 0.00 | 0.00 | 0.00 | 95 | 1014.7 |
| 20260506102023 | 56 | 130 | 1.7 | 2.6 | 0.00 | 0.00 | 0.00 | 95 | 1014.6 |
| 20260506101519 | 56 | 144 | 2.6 | 4.3 | 0.00 | 0.00 | 0.00 | 95 | 1014.8 |
| 20260506101016 | 56 | 97 | 0.9 | 2.6 | 0.00 | 0.00 | 0.00 | 95 | 1014.6 |
| 20260506100515 | 56 | 156 | 2.6 | 6.1 | 0.00 | 0.00 | 0.00 | 94 | 1014.6 |
| 20260506100013 | 56 | 163 | 2.6 | 5.2 | 0.00 | 0.00 | 0.00 | 94 | 1014.4 |
| 20260506095511 | 57 | 134 | 2.6 | 5.2 | 0.00 | 0.00 | 0.00 | 94 | 1014.6 |
| 20260506095007 | 57 | 141 | 2.6 | 4.3 | 0.00 | 0.00 | 0.00 | 94 | 1014.6 |
| 20260506094505 | 57 | 168 | 3.5 | 6.1 | 0.00 | 0.00 | 0.00 | 94 | 1014.5 |
| 20260506094002 | 57 | 156 | 3.5 | 6.1 | 0.00 | 0.00 | 0.00 | 93 | 1014.5 |
| 20260506093501 | 57 | 157 | 5.2 | 7.8 | 0.00 | 0.00 | 0.00 | 94 | 1014.5 |
| 20260506092958 | 57 | 153 | 2.6 | 7.0 | 0.00 | 0.00 | 0.00 | 94 | 1014.4 |
| 20260506092455 | 57 | 148 | 2.6 | 4.3 | 0.00 | 0.00 | 0.00 | 93 | 1014.4 |
| 20260506091952 | 57 | 140 | 3.5 | 5.2 | 0.00 | 0.00 | 0.00 | 93 | 1014.4 |
| 20260506091451 | 57 | 149 | 2.6 | 6.1 | 0.00 | 0.00 | 0.00 | 93 | 1014.1 |
| 20260506090947 | 57 | 180 | 4.3 | 6.1 | 0.00 | 0.00 | 0.00 | 93 | 1014.4 |
| 20260506090445 | 57 | 140 | 3.5 | 6.1 | 0.00 | 0.00 | 0.00 | 93 | 1014.6 |
| 20260506085941 | 57 | 132 | 2.6 | 5.2 | 0.00 | 0.00 | 0.00 | 92 | 1014.2 |
| 20260506085438 | 57 | 152 | 5.2 | 7.8 | 0.00 | 0.00 | 0.00 | 93 | 1014.5 |
| 20260506084934 | 57 | 178 | 3.5 | 4.3 | 0.00 | 0.00 | 0.00 | 93 | 1014.6 |
| 20260506084431 | 57 | 120 | 2.6 | 4.3 | 0.00 | 0.00 | 0.00 | 92 | 1014.5 |
| 20260506083927 | 57 | 166 | 2.6 | 5.2 | 0.00 | 0.00 | 0.00 | 92 | 1014.8 |
| 20260506083425 | 57 | 151 | 1.7 | 6.1 | 0.00 | 0.00 | 0.00 | 92 | 1014.6 |
| 20260506082922 | 57 | 149 | 3.5 | 5.2 | 0.00 | 0.00 | 0.00 | 92 | 1014.7 |
| 20260506082419 | 57 | 142 | 1.7 | 5.2 | 0.00 | 0.00 | 0.00 | 92 | 1014.6 |
| 20260506081915 | 57 | 133 | 2.6 | 7.0 | 0.00 | 0.00 | 0.00 | 91 | 1014.8 |
| 20260506081414 | 57 | 130 | 2.6 | 4.3 | 0.00 | 0.00 | 0.00 | 91 | 1014.7 |
| 20260506080910 | 57 | 142 | 2.6 | 8.7 | 0.00 | 0.00 | 0.00 | 91 | 1014.6 |
| 20260506080407 | 57 | 147 | 3.5 | 7.0 | 0.00 | 0.00 | 0.00 | 90 | 1014.7 |
| 20260506073351 | 58 | 144 | 1.7 | 7.0 | 0.00 | 0.00 | 0.00 | 88 | 1014.9 |
| 20260506072847 | 58 | 116 | 4.3 | 7.0 | 0.00 | 0.00 | 0.00 | 88 | 1014.8 |
| 20260506072345 | 59 | 165 | 3.5 | 6.1 | 0.00 | 0.00 | 0.00 | 88 | 1014.7 |
| 20260506071843 | 59 | 113 | 3.5 | 7.0 | 0.00 | 0.00 | 0.00 | 87 | 1014.6 |
| 20260506071341 | 59 | 151 | 3.5 | 7.0 | 0.00 | 0.00 | 0.00 | 87 | 1014.5 |
| 20260506070837 | 59 | 148 | 2.6 | 7.8 | 0.00 | 0.00 | 0.00 | 87 | 1014.4 |
| 20260506070334 | 59 | 166 | 3.5 | 6.1 | 0.00 | 0.00 | 0.00 | 87 | 1014.4 |
| 20260506062312 | 60 | 120 | 5.2 | 6.1 | 0.00 | 0.00 | 0.00 | 84 | 1014.3 |
| 20260506061808 | 60 | 128 | 4.3 | 7.8 | 0.00 | 0.00 | 0.00 | 84 | 1014.3 |
| 20260506061304 | 60 | 168 | 3.5 | 7.0 | 0.00 | 0.00 | 0.00 | 84 | 1014.4 |
| 20260506060803 | 60 | 168 | 5.2 | 6.1 | 0.00 | 0.00 | 0.00 | 83 | 1014.5 |
| 20260506060300 | 60 | 135 | 2.6 | 8.7 | 0.00 | 0.00 | 0.00 | 83 | 1014.3 |
| 20260506051232 | 61 | 107 | 4.3 | 7.8 | 0.00 | 0.00 | 0.00 | 79 | 1014.5 |
| 20260506050730 | 61 | 170 | 3.5 | 7.0 | 0.00 | 0.00 | 0.00 | 79 | 1014.6 |
| 20260506050227 | 62 | 144 | 2.6 | 7.0 | 0.00 | 0.00 | 0.00 | 79 | 1014.7 |
| 20260506044718 | 61 | 159 | 4.3 | 6.1 | 0.00 | 0.00 | 0.00 | 78 | 1014.8 |
| 20260506044215 | 61 | 145 | 4.3 | 6.1 | 0.00 | 0.00 | 0.00 | 78 | 1015.1 |
| 20260506043712 | 61 | 139 | 4.3 | 6.1 | 0.00 | 0.00 | 0.00 | 77 | 1014.8 |
| 20260506043210 | 61 | 165 | 5.2 | 7.8 | 0.00 | 0.00 | 0.00 | 77 | 1014.5 |
| 20260506042709 | 62 | 145 | 4.3 | 6.1 | 0.00 | 0.00 | 0.00 | 77 | 1014.8 |
| 20260506042207 | 61 | 176 | 4.3 | 6.1 | 0.00 | 0.00 | 0.00 | 77 | 1015.1 |
| 20260506041705 | 61 | 153 | 6.1 | 7.0 | 0.00 | 0.00 | 0.00 | 76 | 1014.8 |
| 20260506041201 | 61 | 168 | 2.6 | 6.1 | 0.00 | 0.00 | 0.00 | 76 | 1015.0 |
| 20260506040659 | 61 | 147 | 2.6 | 6.1 | 0.00 | 0.00 | 0.00 | 76 | 1014.9 |
| 20260506040155 | 61 | 156 | 3.5 | 5.2 | 0.00 | 0.00 | 0.00 | 77 | 1015.0 |
| 20260506035652 | 61 | 108 | 2.6 | 8.7 | 0.00 | 0.00 | 0.00 | 76 | 1014.8 |
| 20260506035149 | 61 | 147 | 3.5 | 5.2 | 0.00 | 0.00 | 0.00 | 76 | 1014.8 |
| 20260506034646 | 61 | 131 | 2.6 | 5.2 | 0.00 | 0.00 | 0.00 | 77 | 1014.9 |
| 20260506034143 | 61 | 173 | 4.3 | 5.2 | 0.00 | 0.00 | 0.00 | 77 | 1015.0 |
| 20260506033640 | 61 | 147 | 4.3 | 5.2 | 0.00 | 0.00 | 0.00 | 77 | 1015.0 |
| 20260506033137 | 61 | 143 | 1.7 | 5.2 | 0.00 | 0.00 | 0.00 | 77 | 1014.7 |
| 20260506032634 | 61 | 127 | 7.0 | 9.6 | 0.00 | 0.00 | 0.00 | 77 | 1014.8 |
| 20260506032131 | 61 | 142 | 2.6 | 4.3 | 0.00 | 0.00 | 0.00 | 77 | 1014.6 |
| 20260506031628 | 60 | 142 | 2.6 | 6.1 | 0.00 | 0.00 | 0.00 | 77 | 1014.7 |
| 20260506031125 | 60 | 143 | 2.6 | 5.2 | 0.00 | 0.00 | 0.00 | 78 | 1014.6 |
| 20260506030624 | 60 | 140 | 2.6 | 7.8 | 0.00 | 0.00 | 0.00 | 77 | 1014.6 |
| 20260506030121 | 60 | 152 | 3.5 | 4.3 | 0.00 | 0.00 | 0.00 | 78 | 1014.7 |
| 20260506025617 | 60 | 135 | 3.5 | 7.0 | 0.00 | 0.00 | 0.00 | 77 | 1014.8 |
| 20260506025113 | 60 | 139 | 1.7 | 4.3 | 0.00 | 0.00 | 0.00 | 78 | 1014.9 |
| 20260506024611 | 60 | 141 | 1.7 | 5.2 | 0.00 | 0.00 | 0.00 | 78 | 1014.7 |
| 20260506024107 | 60 | 139 | 2.6 | 4.3 | 0.00 | 0.00 | 0.00 | 78 | 1014.7 |
| 20260506023603 | 60 | 78 | 4.3 | 7.0 | 0.00 | 0.00 | 0.00 | 78 | 1014.8 |
| 20260506023101 | 60 | 139 | 3.5 | 5.2 | 0.00 | 0.00 | 0.00 | 78 | 1014.7 |
| 20260506022558 | 60 | 126 | 2.6 | 5.2 | 0.00 | 0.00 | 0.00 | 77 | 1014.7 |
| 20260506022055 | 60 | 142 | 4.3 | 5.2 | 0.00 | 0.00 | 0.00 | 77 | 1014.6 |
| 20260506021553 | 60 | 120 | 2.6 | 5.2 | 0.00 | 0.00 | 0.00 | 77 | 1014.8 |
| 20260506021050 | 60 | 87 | 4.3 | 7.0 | 0.00 | 0.00 | 0.00 | 77 | 1014.9 |
| 20260506020547 | 60 | 133 | 5.2 | 7.0 | 0.00 | 0.00 | 0.00 | 76 | 1014.9 |
| 20260506020044 | 60 | 157 | 2.6 | 5.2 | 0.00 | 0.00 | 0.00 | 77 | 1014.8 |
| 20260506015542 | 60 | 112 | 2.6 | 6.1 | 0.00 | 0.00 | 0.00 | 76 | 1014.8 |
| 20260506015039 | 60 | 131 | 4.3 | 7.0 | 0.00 | 0.00 | 0.00 | 75 | 1014.8 |
| 20260506014536 | 61 | 120 | 2.6 | 4.3 | 0.00 | 0.00 | 0.00 | 75 | 1014.5 |
| 20260506014032 | 61 | 124 | 1.7 | 7.0 | 0.00 | 0.00 | 0.00 | 75 | 1014.7 |
| 20260506013531 | 61 | 157 | 3.5 | 6.1 | 0.00 | 0.00 | 0.00 | 74 | 1014.6 |
| 20260506013026 | 61 | 116 | 4.3 | 6.1 | 0.00 | 0.00 | 0.00 | 74 | 1014.4 |
| 20260506012523 | 61 | 134 | 2.6 | 4.3 | 0.00 | 0.00 | 0.00 | 74 | 1014.2 |
| 20260506012020 | 62 | 125 | 3.5 | 5.2 | 0.00 | 0.00 | 0.00 | 74 | 1014.4 |
| 20260506011517 | 62 | 141 | 2.6 | 6.1 | 0.00 | 0.00 | 0.00 | 73 | 1014.2 |
| 20260506011013 | 62 | 155 | 3.5 | 6.1 | 0.00 | 0.00 | 0.00 | 73 | 1014.3 |
| 20260506010508 | 62 | 125 | 2.6 | 5.2 | 0.00 | 0.00 | 0.00 | 73 | 1014.3 |
| 20260506010004 | 62 | 151 | 2.6 | 6.1 | 0.00 | 0.00 | 0.00 | 73 | 1013.9 |
| 20260506005501 | 62 | 138 | 3.5 | 4.3 | 0.00 | 0.00 | 0.00 | 73 | 1014.0 |
| 20260506004956 | 62 | 163 | 3.5 | 7.8 | 0.00 | 0.00 | 0.00 | 72 | 1013.9 |
| 20260506004454 | 62 | 125 | 3.5 | 5.2 | 0.00 | 0.00 | 0.00 | 72 | 1013.9 |
| 20260506003950 | 63 | 134 | 3.5 | 7.8 | 0.00 | 0.00 | 0.00 | 71 | 1013.7 |
| 20260506003446 | 63 | 155 | 3.5 | 6.1 | 0.00 | 0.00 | 0.00 | 72 | 1013.9 |
| 20260506002943 | 63 | 172 | 2.6 | 7.0 | 0.00 | 0.00 | 0.00 | 71 | 1014.0 |
| 20260506002439 | 64 | 125 | 1.7 | 6.1 | 0.00 | 0.00 | 0.00 | 71 | 1013.7 |
| 20260506001934 | 64 | 117 | 3.5 | 5.2 | 0.00 | 0.00 | 0.00 | 71 | 1013.7 |
| 20260506001432 | 64 | 160 | 2.6 | 4.3 | 0.00 | 0.00 | 0.00 | 70 | 1013.5 |
| 20260506000929 | 64 | 141 | 3.5 | 5.2 | 0.00 | 0.00 | 0.00 | 69 | 1013.4 |
| 20260506000427 | 65 | 88 | 3.5 | 7.8 | 0.00 | 0.00 | 0.00 | 68 | 1013.3 |
| 20260505235923 | 65 | 128 | 4.3 | 7.8 | 0.00 | 0.00 | 0.00 | 67 | 1013.1 |
| 20260505235421 | 66 | 179 | 2.6 | 7.0 | 0.00 | 0.00 | 0.00 | 67 | 1013.1 |
| 20260505234918 | 66 | 157 | 4.3 | 8.7 | 0.00 | 0.00 | 0.00 | 66 | 1013.1 |
| 20260505234415 | 66 | 172 | 3.5 | 5.2 | 0.00 | 0.00 | 0.00 | 65 | 1013.1 |
| 20260505233912 | 67 | 147 | 5.2 | 7.8 | 0.00 | 0.00 | 0.00 | 64 | 1012.8 |
| 20260505233410 | 67 | 143 | 4.3 | 9.6 | 0.00 | 0.00 | 0.00 | 63 | 1012.6 |
| 20260505232907 | 68 | 177 | 4.3 | 7.0 | 0.00 | 0.00 | 0.00 | 64 | 1012.5 |
| 20260505232405 | 68 | 154 | 5.2 | 11.3 | 0.00 | 0.00 | 0.00 | 62 | 1012.7 |
| 20260505231901 | 68 | 150 | 5.2 | 8.7 | 0.00 | 0.00 | 0.00 | 62 | 1012.3 |
| 20260505231359 | 68 | 186 | 4.3 | 7.0 | 0.00 | 0.00 | 0.00 | 61 | 1012.6 |
| 20260505230857 | 68 | 161 | 5.2 | 7.8 | 0.00 | 0.00 | 0.00 | 62 | 1012.6 |
| 20260505230354 | 69 | 144 | 2.6 | 5.2 | 0.00 | 0.00 | 0.00 | 62 | 1012.3 |
| 20260505225851 | 69 | 133 | 2.6 | 7.0 | 0.00 | 0.00 | 0.00 | 61 | 1012.3 |
| 20260505225348 | 69 | 121 | 4.3 | 6.1 | 0.00 | 0.00 | 0.00 | 60 | 1012.4 |
| 20260505224843 | 69 | 124 | 6.1 | 7.0 | 0.00 | 0.00 | 0.00 | 59 | 1012.2 |
| 20260505224341 | 70 | 135 | 2.6 | 7.8 | 0.00 | 0.00 | 0.00 | 59 | 1012.1 |
| 20260505223838 | 70 | 147 | 4.3 | 7.0 | 0.00 | 0.00 | 0.00 | 58 | 1012.1 |
| 20260505223335 | 71 | 117 | 4.3 | 11.3 | 0.00 | 0.00 | 0.00 | 57 | 1011.7 |
| 20260505222830 | 71 | 131 | 6.1 | 9.6 | 0.00 | 0.00 | 0.00 | 57 | 1011.8 |
| 20260505222327 | 71 | 146 | 4.3 | 11.3 | 0.00 | 0.00 | 0.00 | 58 | 1011.6 |
| 20260505221824 | 71 | 138 | 3.5 | 7.8 | 0.00 | 0.00 | 0.00 | 57 | 1011.5 |
| 20260505221321 | 71 | 166 | 4.3 | 7.8 | 0.00 | 0.00 | 0.00 | 57 | 1011.5 |
| 20260505220818 | 72 | 169 | 7.0 | 11.3 | 0.00 | 0.00 | 0.00 | 56 | 1011.5 |
| 20260505220315 | 72 | 137 | 2.6 | 9.6 | 0.00 | 0.00 | 0.00 | 57 | 1011.7 |
| 20260505215813 | 72 | 119 | 4.3 | 7.8 | 0.00 | 0.00 | 0.00 | 57 | 1011.8 |
| 20260505215310 | 72 | 106 | 4.3 | 6.1 | 0.00 | 0.00 | 0.00 | 56 | 1011.8 |
| 20260505214808 | 72 | 152 | 4.3 | 7.8 | 0.00 | 0.00 | 0.00 | 57 | 1011.6 |
| 20260505214306 | 72 | 116 | 3.5 | 5.2 | 0.00 | 0.00 | 0.00 | 57 | 1011.4 |
| 20260505213802 | 72 | 111 | 3.5 | 7.0 | 0.00 | 0.00 | 0.00 | 58 | 1011.8 |
| 20260505213300 | 72 | 144 | 4.3 | 11.3 | 0.00 | 0.00 | 0.00 | 57 | 1011.7 |
| 20260505212755 | 73 | 144 | 4.3 | 7.8 | 0.00 | 0.00 | 0.00 | 56 | 1011.7 |
| 20260505212253 | 73 | 94 | 6.1 | 7.8 | 0.00 | 0.00 | 0.00 | 55 | 1011.6 |
| 20260505211750 | 74 | 153 | 5.2 | 11.3 | 0.00 | 0.00 | 0.00 | 55 | 1011.4 |
| 20260505211248 | 74 | 166 | 5.2 | 11.3 | 0.00 | 0.00 | 0.00 | 55 | 1011.3 |
| 20260505210743 | 75 | 179 | 4.3 | 11.3 | 0.00 | 0.00 | 0.00 | 55 | 1011.2 |
| 20260505210241 | 75 | 115 | 4.3 | 7.8 | 0.00 | 0.00 | 0.00 | 54 | 1011.2 |
| 20260505205737 | 75 | 114 | 4.3 | 7.8 | 0.00 | 0.00 | 0.00 | 54 | 1011.2 |
| 20260505205236 | 75 | 106 | 4.3 | 8.7 | 0.00 | 0.00 | 0.00 | 54 | 1011.2 |
| 20260505204732 | 75 | 134 | 4.3 | 11.3 | 0.00 | 0.00 | 0.00 | 53 | 1011.4 |
| 20260505204230 | 75 | 90 | 6.1 | 12.2 | 0.00 | 0.00 | 0.00 | 52 | 1011.5 |
| 20260505203726 | 75 | 126 | 4.3 | 13.9 | 0.00 | 0.00 | 0.00 | 53 | 1011.2 |
| 20260505203224 | 76 | 190 | 7.0 | 9.6 | 0.00 | 0.00 | 0.00 | 51 | 1011.1 |
| 20260505202719 | 77 | 178 | 7.0 | 11.3 | 0.00 | 0.00 | 0.00 | 51 | 1011.4 |